| time (UTC) | temp F | wind direction | speed MPH | gust MPH | rain 1hr in | rain 24hr in | rain mn in | humidity % | barometer mb |
| 20260508001535 | 53 | 341 | 0.0 | 0.0 | 0.03 | 0.65 | 0.00 | 86 | 1014.3 |
| 20260508000007 | 53 | 341 | 0.0 | 0.0 | 0.05 | 0.65 | 0.65 | 86 | 1014.3 |
| 20260507234558 | 53 | 341 | 0.0 | 0.0 | 0.07 | 0.64 | 0.64 | 85 | 1014.3 |
| 20260507233038 | 53 | 341 | 0.0 | 0.0 | 0.16 | 0.63 | 0.63 | 85 | 1014.2 |
| 20260507231527 | 54 | 341 | 0.0 | 1.0 | 0.49 | 0.61 | 0.61 | 85 | 1014.2 |
| 20260507230026 | 54 | 344 | 0.0 | 3.0 | 0.56 | 0.59 | 0.59 | 85 | 1014.4 |
| 20260507224507 | 54 | 338 | 0.0 | 4.0 | 0.54 | 0.56 | 0.56 | 84 | 1014.4 |
| 20260507223058 | 55 | 335 | 0.0 | 4.0 | 0.46 | 0.47 | 0.47 | 83 | 1014.5 |
| 20260507221537 | 55 | 359 | 0.0 | 2.0 | 0.10 | 0.12 | 0.12 | 81 | 1014.4 |
| 20260507220026 | 56 | 276 | 0.0 | 0.0 | 0.02 | 0.03 | 0.03 | 79 | 1014.2 |
| 20260507214517 | 56 | 276 | 0.0 | 1.0 | 0.01 | 0.02 | 0.02 | 78 | 1014.1 |
| 20260507213006 | 56 | 264 | 0.0 | 2.0 | 0.01 | 0.02 | 0.02 | 81 | 1014.0 |
| 20260507211557 | 56 | 77 | 0.0 | 1.0 | 0.01 | 0.02 | 0.02 | 84 | 1013.8 |
| 20260507210046 | 56 | 77 | 0.0 | 3.0 | 0.01 | 0.02 | 0.02 | 84 | 1013.7 |
| 20260507204536 | 56 | 20 | 0.0 | 3.0 | 0.00 | 0.01 | 0.01 | 84 | 1013.8 |
| 20260507203026 | 56 | 34 | 0.0 | 1.0 | 0.00 | 0.01 | 0.01 | 83 | 1013.8 |
| 20260507201524 | 56 | 138 | 1.0 | 3.0 | 0.00 | 0.01 | 0.01 | 82 | 1013.8 |
| 20260507200012 | 57 | 55 | 0.0 | 2.0 | 0.00 | 0.01 | 0.01 | 80 | 1013.6 |
| 20260507194613 | 57 | 68 | 0.0 | 4.0 | 0.01 | 0.01 | 0.01 | 77 | 1013.7 |
| 20260507193051 | 57 | 79 | 0.0 | 1.0 | 0.01 | 0.01 | 0.01 | 75 | 1013.6 |
| 20260507191542 | 57 | 79 | 0.0 | 2.0 | 0.01 | 0.01 | 0.01 | 74 | 1013.5 |
| 20260507190016 | 57 | 79 | 0.0 | 4.0 | 0.01 | 0.01 | 0.01 | 73 | 1013.4 |
| 20260507184502 | 57 | 67 | 1.0 | 4.0 | 0.00 | 0.00 | 0.00 | 72 | 1013.1 |
| 20260507183104 | 57 | 19 | 0.0 | 0.0 | 0.00 | 0.00 | 0.00 | 71 | 1013.0 |
| 20260507181546 | 58 | 86 | 1.0 | 4.0 | 0.00 | 0.00 | 0.00 | 70 | 1012.9 |
| 20260507180040 | 58 | 31 | 0.0 | 3.0 | 0.00 | 0.00 | 0.00 | 70 | 1013.0 |
| 20260507174523 | 58 | 26 | 0.0 | 0.0 | 0.00 | 0.00 | 0.00 | 70 | 1012.8 |
| 20260507173013 | 59 | 26 | 0.0 | 0.0 | 0.00 | 0.00 | 0.00 | 69 | 1013.0 |
| 20260507171559 | 59 | 26 | 0.0 | 3.0 | 0.00 | 0.00 | 0.00 | 69 | 1012.8 |
| 20260507170053 | 60 | 50 | 1.0 | 3.0 | 0.00 | 0.00 | 0.00 | 68 | 1012.6 |
| 20260507164538 | 61 | 61 | 1.0 | 4.0 | 0.00 | 0.00 | 0.00 | 62 | 1012.7 |
| 20260507163028 | 62 | 288 | 0.0 | 4.0 | 0.00 | 0.00 | 0.00 | 61 | 1012.7 |
| 20260507161518 | 64 | 243 | 1.0 | 5.0 | 0.00 | 0.00 | 0.00 | 60 | 1012.6 |
| 20260507160006 | 63 | 229 | 3.0 | 8.0 | 0.00 | 0.00 | 0.00 | 60 | 1012.6 |
| 20260507154556 | 63 | 104 | 3.0 | 7.0 | 0.00 | 0.00 | 0.00 | 61 | 1012.7 |
| 20260507153051 | 62 | 288 | 2.0 | 6.0 | 0.00 | 0.00 | 0.00 | 61 | 1012.9 |
| 20260507151533 | 62 | 98 | 3.0 | 6.0 | 0.00 | 0.00 | 0.00 | 61 | 1013.1 |
| 20260507150023 | 60 | 53 | 2.0 | 7.0 | 0.00 | 0.00 | 0.00 | 61 | 1012.9 |
| 20260507144510 | 60 | 216 | 2.0 | 6.0 | 0.00 | 0.00 | 0.00 | 62 | 1012.9 |
| 20260507143108 | 60 | 297 | 1.0 | 4.0 | 0.00 | 0.00 | 0.00 | 62 | 1013.1 |
| 20260507141550 | 60 | 50 | 1.0 | 4.0 | 0.00 | 0.00 | 0.00 | 61 | 1013.2 |
| 20260507140039 | 60 | 278 | 1.0 | 10.0 | 0.00 | 0.00 | 0.00 | 60 | 1013.3 |
| 20260507134526 | 60 | 319 | 0.0 | 11.0 | 0.00 | 0.00 | 0.00 | 59 | 1012.9 |
| 20260507133015 | 61 | 177 | 3.0 | 13.0 | 0.00 | 0.00 | 0.00 | 59 | 1012.6 |
| 20260507131507 | 61 | 263 | 5.0 | 12.0 | 0.00 | 0.00 | 0.00 | 58 | 1012.9 |
| 20260507130104 | 62 | 166 | 4.0 | 12.0 | 0.00 | 0.00 | 0.00 | 57 | 1012.9 |
| 20260507124533 | 64 | 222 | 7.0 | 17.0 | 0.00 | 0.00 | 0.00 | 50 | 1013.0 |
| 20260507123025 | 66 | 199 | 7.0 | 16.0 | 0.00 | 0.00 | 0.00 | 46 | 1012.9 |
| 20260507121514 | 67 | 281 | 5.0 | 12.0 | 0.00 | 0.00 | 0.00 | 47 | 1012.8 |
| 20260507120004 | 67 | 228 | 1.0 | 10.0 | 0.00 | 0.00 | 0.00 | 51 | 1012.9 |
| 20260507114547 | 66 | 337 | 2.0 | 11.0 | 0.00 | 0.00 | 0.00 | 52 | 1013.1 |
| 20260507113037 | 66 | 305 | 0.0 | 3.0 | 0.00 | 0.00 | 0.00 | 54 | 1013.1 |
| 20260507111527 | 66 | 296 | 2.0 | 7.0 | 0.00 | 0.00 | 0.00 | 52 | 1013.2 |
| 20260507110016 | 65 | 304 | 0.0 | 10.0 | 0.00 | 0.00 | 0.00 | 52 | 1013.2 |
| 20260507104506 | 66 | 70 | 1.0 | 10.0 | 0.00 | 0.00 | 0.00 | 50 | 1013.1 |
| 20260507103129 | 66 | 45 | 4.0 | 13.0 | 0.00 | 0.00 | 0.00 | 51 | 1013.1 |
| 20260507101548 | 65 | 112 | 1.0 | 8.0 | 0.00 | 0.00 | 0.00 | 51 | 1013.1 |
| 20260507100044 | 66 | 275 | 2.0 | 8.0 | 0.00 | 0.00 | 0.00 | 52 | 1013.2 |
| 20260507094531 | 65 | 229 | 4.0 | 12.0 | 0.00 | 0.00 | 0.00 | 52 | 1013.1 |
| 20260507093017 | 66 | 257 | 3.0 | 11.0 | 0.00 | 0.00 | 0.00 | 51 | 1013.0 |
| 20260507091504 | 67 | 285 | 2.0 | 9.0 | 0.00 | 0.00 | 0.00 | 51 | 1012.9 |
| 20260507090100 | 68 | 347 | 3.0 | 9.0 | 0.00 | 0.00 | 0.00 | 48 | 1012.7 |
| 20260507084548 | 67 | 88 | 5.0 | 12.0 | 0.00 | 0.00 | 0.00 | 48 | 1012.5 |
| 20260507083025 | 68 | 233 | 2.0 | 10.0 | 0.00 | 0.00 | 0.00 | 48 | 1012.4 |
| 20260507081515 | 67 | 94 | 4.0 | 7.0 | 0.00 | 0.00 | 0.00 | 50 | 1012.2 |
| 20260507080056 | 66 | 108 | 2.0 | 8.0 | 0.00 | 0.00 | 0.00 | 50 | 1012.3 |
| 20260507074545 | 65 | 286 | 2.0 | 7.0 | 0.00 | 0.00 | 0.00 | 52 | 1012.2 |
| 20260507073039 | 64 | 192 | 4.0 | 11.0 | 0.00 | 0.00 | 0.00 | 53 | 1012.1 |
| 20260507071525 | 64 | 319 | 1.0 | 8.0 | 0.00 | 0.00 | 0.00 | 55 | 1012.0 |
| 20260507070014 | 63 | 67 | 1.0 | 4.0 | 0.00 | 0.00 | 0.00 | 58 | 1011.8 |
| 20260507064503 | 62 | 45 | 1.0 | 5.0 | 0.00 | 0.00 | 0.00 | 58 | 1011.7 |
| 20260507063057 | 62 | 39 | 1.0 | 5.0 | 0.00 | 0.00 | 0.00 | 58 | 1011.6 |
| 20260507061544 | 61 | 69 | 2.0 | 4.0 | 0.00 | 0.00 | 0.00 | 58 | 1011.3 |
| 20260507060034 | 61 | 68 | 2.0 | 5.0 | 0.00 | 0.00 | 0.00 | 58 | 1011.4 |
| 20260507054523 | 61 | 114 | 4.0 | 7.0 | 0.00 | 0.00 | 0.00 | 56 | 1011.7 |
| 20260507053013 | 60 | 50 | 1.0 | 5.0 | 0.00 | 0.00 | 0.00 | 58 | 1011.8 |
| 20260507051503 | 58 | 56 | 0.0 | 3.0 | 0.00 | 0.00 | 0.00 | 62 | 1011.5 |
| 20260507050057 | 58 | 57 | 1.0 | 4.0 | 0.00 | 0.00 | 0.00 | 58 | 1011.5 |
| 20260507044546 | 59 | 59 | 0.0 | 5.0 | 0.00 | 0.00 | 0.00 | 58 | 1011.8 |
| 20260507043029 | 59 | 12 | 0.0 | 1.0 | 0.00 | 0.00 | 0.00 | 57 | 1011.8 |
| 20260507041518 | 59 | 34 | 0.0 | 1.0 | 0.00 | 0.00 | 0.00 | 55 | 1011.7 |
| 20260507040008 | 59 | 34 | 0.0 | 8.0 | 0.00 | 0.00 | 0.00 | 55 | 1011.8 |
| 20260507034609 | 58 | 18 | 0.0 | 4.0 | 0.00 | 0.00 | 0.00 | 55 | 1011.6 |
| 20260507033052 | 59 | 16 | 0.0 | 1.0 | 0.00 | 0.00 | 0.00 | 54 | 1011.2 |
| 20260507031542 | 60 | 277 | 2.0 | 8.0 | 0.00 | 0.00 | 0.00 | 52 | 1011.4 |
| 20260507030031 | 61 | 300 | 4.0 | 13.0 | 0.00 | 0.00 | 0.00 | 51 | 1011.2 |
| 20260507024519 | 60 | 249 | 4.0 | 7.0 | 0.00 | 0.00 | 0.00 | 52 | 1011.0 |
| 20260507023007 | 61 | 326 | 1.0 | 6.0 | 0.00 | 0.00 | 0.00 | 51 | 1010.6 |
| 20260507021634 | 61 | 234 | 4.0 | 10.0 | 0.00 | 0.00 | 0.00 | 51 | 1010.8 |
| 20260507020105 | 61 | 266 | 2.0 | 8.0 | 0.00 | 0.00 | 0.00 | 51 | 1010.8 |
| 20260507014522 | 61 | 230 | 4.0 | 10.0 | 0.00 | 0.00 | 0.00 | 51 | 1010.8 |
| 20260507013005 | 60 | 271 | 2.0 | 8.0 | 0.00 | 0.00 | 0.00 | 52 | 1010.8 |
| 20260507011600 | 59 | 181 | 1.0 | 4.0 | 0.00 | 0.00 | 0.00 | 54 | 1010.7 |
| 20260507010050 | 61 | 288 | 0.0 | 3.0 | 0.00 | 0.00 | 0.00 | 52 | 1010.6 |
| 20260507004538 | 62 | 263 | 2.0 | 4.0 | 0.00 | 0.00 | 0.00 | 50 | 1010.4 |
| 20260507003015 | 62 | 272 | 2.0 | 5.0 | 0.00 | 0.00 | 0.00 | 49 | 1010.5 |